Retour au catalogue

DELTA 1 DEB

ActifSSO
NORAD 37652·DEBRIS·🇺🇸 United States

Lancé Mar 5, 1978 depuis Vandenberg Space Force Base

Loading…

Prochains Passages (prochaines 24 heures)

TLE

VieillissantSource: Space-Track

Époque: Sep 8, 2026, 02:44 UTC

1 37652U 78026JP  26251.11399510  .00000526  00000-0  25977-3 0  9997
2 37652  98.8402 210.3919 0025042 188.9590 171.1144 14.21551228153845

Suivez DELTA 1 DEB en temps réel avec AllMySat

Download on the App Store